Regional Weather Roundup
Issued by NWS

Home | Current Version | Previous Version | Text Only | Print | Product List | Glossary On
Versions: 1 2 3 4 5 6 7 8 9 10 11 12 13 14 15 16 17 18 19 20 21 22 23 24 25 26 27 28 29 30 31 32 33 34 35 36 37 38 39 40 41 42 43 44 45 46 47 48 49 50
000
ASUS43 KDMX 282107
RWRIA

WEATHER ROUNDUP FOR IOWA
NATIONAL WEATHER SERVICE DES MOINES IA
300 PM CST WED JAN 28 2015

NOTE: "FAIR" INDICATES FEW OR NO CLOUDS BELOW 12,000 FEET WITH NO
SIGNIFICANT WEATHER AND/OR OBSTRUCTIONS TO VISIBILITY.

* - THESE STATIONS ARE NOT NWS STATIONS...THUS NOT UNDER NWS
QUALITY CONTROL.  THEY ALSO DO NOT REPORT WEATHER SUCH
AS PRECIPITATION OR FOG.

IAZ001>003-012>014-020>022-031>034-043>046-282200-
   NORTHWEST IOWA

CITY           SKY/WX    TMP DP  RH WIND       PRES   REMARKS
CARROLL *      SUNNY     48  37  66 S18       29.67F
CHEROKEE *     CLOUDY    45  39  81 SE6       29.69R
DENISON *      SUNNY     50  37  62 S15       29.63F
LE MARS *      SUNNY     46  37  71 S9        29.68S
ORANGE CITY *  SUNNY     45  36  70 S3        29.68S
SHELDON *      CLOUDY    37  37 100 SE8       29.68S FOG     WCI  31
SIOUX CITY     MOSUNNY   50  36  58 NE3       29.67F
SPENCER        CLOUDY    36  31  82 SE8       29.71S HAZE    WCI  30
STORM LAKE *   SUNNY     41  37  87 SE10      29.67F
$$

IAZ055>058-069>071-079>083-090>094-282200-
   SOUTHWEST IOWA

CITY           SKY/WX    TMP DP  RH WIND       PRES   REMARKS
ATLANTIC *     SUNNY     55  37  50 S9        29.68F
AUDUBON *      SUNNY     52  37  58 S9G16     29.68F
CLARINDA *     SUNNY     66  39  37 S17G23    29.68F
COUNCIL BLFS * SUNNY     57  37  47 S14       29.64F
CRESTON *      SUNNY     55  39  54 S17G24    29.68F
HARLAN  *      SUNNY     54  39  58 S14G20    29.69F
LAMONI         PTSUNNY   56  39  53 SE16G22   29.72F
RED OAK *      SUNNY     61  37  41 S8        29.66F
SHENANDOAH *   SUNNY     66  39  37 S17       29.66F
$$

IAZ047>049-059>061-072>074-084-282200-
   CENTRAL IOWA

CITY           SKY/WX    TMP DP  RH WIND       PRES   REMARKS
AMES           PTSUNNY   45  34  65 SE15G25   29.73F
ANKENY *       SUNNY     48  36  61 SE14G25   29.72F
CHARITON *     SUNNY     52  37  58 SE14G20   29.75F
DES MOINES     CLOUDY    50  36  58 S20       29.72F
GRINNELL*      CLOUDY    43  34  70 SE21      29.79F
KNOXVILLE *    SUNNY     48  34  57 SE17      29.74F
MARSHALLTOWN   CLOUDY    40  33  76 SE21      29.75F WCI  30
PELLA *        MOSUNNY   46  36  66 S14       29.79F
PERRY *          N/A     48  37  66 SE13      29.70F
$$

IAZ004>006-015-016-023>025-035-036-282200-
   NORTH CENTRAL IOWA

CITY           SKY/WX    TMP DP  RH WIND       PRES   REMARKS
ALGONA *       MOSUNNY   36  34  93 SE13G18   29.72F FOG     WCI  27
CLARION *      MIX PCPN  36  36 100 SE18      29.71F WCI  25
ESTHERVILLE    CLOUDY    32  30  92 SE13      29.72F FOG     WCI  22
FORT DODGE *   CLOUDY    39  32  75 SE13G20   29.71F WCI  32
MASON CITY     CLOUDY    34  31  88 SE16      29.75F FOG     WCI  24
FOREST CITY *  CLOUDY    34  32  93 SE12G18   29.73F FOG     WCI  25
IOWA FALLS *   PTSUNNY   39  34  81 SE14      29.75F WCI  31
$$

IAZ007>011-017>019-026>030-037>042-050>054-066-282200-
   NORTHEAST IOWA

CITY           SKY/WX    TMP DP  RH WIND       PRES   REMARKS
CEDAR RAPIDS   MOSUNNY   38  31  76 SE15G29   29.83F WCI  29
CHARLES CITY * CLOUDY    34  32  93 SE18G24   29.80F WCI  23
CLINTON *      PTSUNNY   34  27  75 SE18      29.97F WCI  23
DECORAH *      MOSUNNY   36  28  75 SE17      29.82F WCI  25
DUBUQUE        PTSUNNY   31  23  72 S24G31    29.91F WCI  17
MONTICELLO *   SUNNY     34  28  80 SE20G26   29.88F WCI  22
OELWEIN *      CLOUDY    34  30  86 SE24      29.83F WCI  21
WATERLOO       CLOUDY    37  31  78 SE18G25   29.81F WCI  27
$$

IAZ064-065-067-068-078-282200-
   EAST CENTRAL IOWA

CITY           SKY/WX    TMP DP  RH WIND       PRES   REMARKS
DAVENPORT      MOSUNNY   36  27  69 SE22G30   29.93F WCI  25
IOWA CITY      MOSUNNY   38  32  79 SE17      29.87F WCI  28
MT. PLEASANT * PTSUNNY   41  34  75 SE16G22   29.87F
MUSCATINE *    SUNNY     39  32  75 SE18      29.90F WCI  30
QUAD CITIES    MOSUNNY   36  28  73 SE16      29.94F WCI  26
$$

IAZ062-063-075>077-085>089-095>099-282200-
   SOUTHEAST IOWA

CITY           SKY/WX    TMP DP  RH WIND       PRES   REMARKS
BURLINGTON     MOSUNNY   43  33  68 S14G28    29.89F
FAIRFIELD *    SUNNY     45  34  65 SE16G25   29.83F
FORT MADISON * SUNNY     43  36  75 SE17G28   29.90F
KEOKUK *       SUNNY     45  32  61 S13G23    29.89F
OSKALOOSA *      N/A     45  36  70 S21       29.81F
CENTERVILLE *  SUNNY     48  37  66 SE14      29.80S
OTTUMWA        PTSUNNY   45  34  65 S23       29.80F
WASHINGTON *   SUNNY     43  37  81 SE22G31   29.85F
$$

ABBREVIATIONS USED IN REMARKS
   TC - TEMPERATURES IN CELSIUS
  WCI - WIND CHILL INDEX
   HX - HEAT INDEX
  VSB - VISIBILITY
$$




USA.gov is the U.S. government's official web portal to all federal, state and local government web resources and services.